When you browse on this site, cookies collect data to enhance your experience and personalize the content and advertising you see.
Visit our Privacy Policy to learn more. By continuing to use the site, you agree to this use of cookies and data.
  • In Hungary
  • List of Countries
  • For 7 days
  • Water Temperature
  • Weather Map
  • News
  • Weather Widgets
  • user-avatar
    Login

    Hourly Weather Timmins

    Today, 13 November, Wednesday

    Time Temperature Precipitation Wind Pressure Humidity
    00:00 -19°C° 0 mm 1 mps 739 mmHg 97%
    01:00 -19°C° 0 mm 1 mps 740 mmHg 97%
    02:00 -19°C° 0 mm 1 mps 739 mmHg 96%
    03:00 -20°C° 0 mm 1 mps 739 mmHg 96%
    04:00 -20°C° 0 mm 1 mps 739 mmHg 96%
    05:00 -20°C° 0 mm 1 mps 740 mmHg 95%
    06:00 -19°C° 0 mm 1 mps 740 mmHg 95%
    07:00 -19°C° 0 mm 1 mps 740 mmHg 94%
    08:00 -20°C° 0 mm 2 mps 740 mmHg 88%
    09:00 -18°C° 0 mm 2 mps 740 mmHg 83%
    10:00 -16°C° 0 mm 2 mps 740 mmHg 77%
    11:00 -15°C° 0 mm 3 mps 739 mmHg 72%
    12:00 -14°C° 0 mm 3 mps 739 mmHg 67%
    13:00 -12°C° 0 mm 4 mps 738 mmHg 62%
    14:00 -12°C° 0 mm 4 mps 738 mmHg 64%
    15:00 -12°C° 0 mm 4 mps 737 mmHg 66%
    16:00 -12°C° 0 mm 3 mps 736 mmHg 69%
    17:00 -12°C° 0 mm 4 mps 736 mmHg 75%
    18:00 -14°C° 0 mm 4 mps 735 mmHg 81%
    19:00 -14°C° 0 mm 4 mps 735 mmHg 87%
    20:00 -12°C° 0.1 mm 4 mps 734 mmHg 88%
    21:00 -12°C° 0.1 mm 4 mps 734 mmHg 90%
    22:00 -12°C° 0.1 mm 4 mps 734 mmHg 91%
    23:00 -11°C° 0.1 mm 4 mps 733 mmHg 92%

    Tomorrow, 14 November, Thursday

    Time Temperature Precipitation Wind Pressure Humidity
    00:00 -10°C° 0.1 mm 3 mps 733 mmHg 92%
    01:00 -10°C° 0.1 mm 3 mps 732 mmHg 92%
    02:00 -10°C° 0 mm 3 mps 732 mmHg 93%
    03:00 -10°C° 0 mm 3 mps 732 mmHg 93%
    04:00 -9°C° 0 mm 2 mps 732 mmHg 94%
    05:00 -10°C° 0 mm 2 mps 732 mmHg 94%
    06:00 -10°C° 0 mm 2 mps 732 mmHg 95%
    07:00 -12°C° 0 mm 2 mps 732 mmHg 95%
    08:00 -10°C° 0 mm 2 mps 732 mmHg 92%
    09:00 -9°C° 0 mm 2 mps 732 mmHg 88%
    10:00 -9°C° 0 mm 3 mps 732 mmHg 85%
    11:00 -7°C° 0 mm 3 mps 732 mmHg 83%
    12:00 -7°C° 0 mm 4 mps 732 mmHg 80%
    13:00 -5°C° 0 mm 4 mps 731 mmHg 78%
    14:00 -5°C° 0 mm 4 mps 731 mmHg 79%
    15:00 -5°C° 0 mm 4 mps 730 mmHg 80%
    16:00 -5°C° 0 mm 4 mps 730 mmHg 82%
    17:00 -5°C° 0 mm 4 mps 729 mmHg 83%
    18:00 -5°C° 0 mm 4 mps 729 mmHg 85%
    19:00 -6°C° 0 mm 5 mps 728 mmHg 86%
    20:00 -6°C° 0.4 mm 5 mps 728 mmHg 88%
    21:00 -6°C° 0.4 mm 5 mps 727 mmHg 91%
    22:00 -6°C° 0.4 mm 6 mps 726 mmHg 93%
    23:00 -8°C° 0.8 mm 6 mps 726 mmHg 92%

    Day after tomorrow, 15 November, Friday

    Time Temperature Precipitation Wind Pressure Humidity
    00:00 -7°C° 0.8 mm 5 mps 726 mmHg 92%
    01:00 -7°C° 0.8 mm 5 mps 726 mmHg 91%
    02:00 -8°C° 0.2 mm 5 mps 726 mmHg 88%
    03:00 -10°C° 0.2 mm 5 mps 727 mmHg 86%
    04:00 -11°C° 0.2 mm 5 mps 727 mmHg 83%
    05:00 -12°C° 0 mm 6 mps 729 mmHg 83%
    06:00 -15°C° 0 mm 6 mps 730 mmHg 83%
    07:00 -17°C° 0 mm 7 mps 731 mmHg 83%
    08:00 -18°C° 0 mm 7 mps 733 mmHg 80%
    09:00 -20°C° 0 mm 6 mps 735 mmHg 77%
    10:00 -21°C° 0 mm 6 mps 736 mmHg 74%
    11:00 -20°C° 0 mm 5 mps 737 mmHg 75%
    12:00 -20°C° 0 mm 5 mps 738 mmHg 76%
    13:00 -19°C° 0 mm 5 mps 740 mmHg 77%
    14:00 -18°C° 0 mm 4 mps 740 mmHg 79%
    15:00 -19°C° 0 mm 4 mps 741 mmHg 81%
    16:00 -18°C° 0 mm 3 mps 742 mmHg 83%
    17:00 -19°C° 0 mm 3 mps 742 mmHg 87%
    18:00 -19°C° 0 mm 2 mps 743 mmHg 90%
    19:00 -19°C° 0 mm 2 mps 744 mmHg 94%
    20:00 -20°C° 0 mm 2 mps 744 mmHg 94%
    21:00 -20°C° 0 mm 2 mps 745 mmHg 94%
    22:00 -20°C° 0 mm 2 mps 745 mmHg 94%
    23:00 -20°C° 0 mm 2 mps 746 mmHg 94%

    16 November, Saturday

    Time Temperature Precipitation Wind Pressure Humidity
    00:00 -18°C° 0 mm 1 mps 746 mmHg 93%
    01:00 -18°C° 0 mm 1 mps 746 mmHg 93%
    02:00 -18°C° 0 mm 1 mps 746 mmHg 92%
    03:00 -18°C° 0 mm 1 mps 747 mmHg 92%
    04:00 -18°C° 0 mm 1 mps 747 mmHg 92%
    05:00 -18°C° 0 mm 1 mps 747 mmHg 91%
    06:00 -18°C° 0 mm 1 mps 747 mmHg 91%
    07:00 -18°C° 0 mm 1 mps 747 mmHg 90%
    08:00 -18°C° 0 mm 2 mps 746 mmHg 85%
    09:00 -17°C° 0 mm 2 mps 746 mmHg 81%
    10:00 -15°C° 0 mm 2 mps 746 mmHg 76%
    11:00 -14°C° 0 mm 3 mps 746 mmHg 72%
    12:00 -12°C° 0 mm 3 mps 745 mmHg 69%
    13:00 -11°C° 0 mm 4 mps 745 mmHg 65%
    14:00 -10°C° 0 mm 4 mps 744 mmHg 67%
    15:00 -10°C° 0 mm 4 mps 743 mmHg 68%
    16:00 -10°C° 0 mm 4 mps 742 mmHg 70%
    17:00 -10°C° 0 mm 4 mps 742 mmHg 74%
    18:00 -11°C° 0 mm 4 mps 741 mmHg 78%
    19:00 -11°C° 0 mm 4 mps 741 mmHg 83%
    20:00 -11°C° 0 mm 4 mps 740 mmHg 83%
    21:00 -12°C° 0 mm 5 mps 740 mmHg 83%
    22:00 -11°C° 0 mm 5 mps 739 mmHg 84%
    23:00 -11°C° 0 mm 5 mps 739 mmHg 83%

    17 November, Sunday

    Time Temperature Precipitation Wind Pressure Humidity
    00:00 -10°C° 0 mm 4 mps 738 mmHg 82%
    01:00 -9°C° 0 mm 4 mps 738 mmHg 81%
    02:00 -9°C° 0 mm 4 mps 737 mmHg 83%
    03:00 -9°C° 0 mm 4 mps 737 mmHg 85%
    04:00 -9°C° 0 mm 4 mps 736 mmHg 86%
    05:00 -8°C° 0 mm 4 mps 736 mmHg 88%
    06:00 -7°C° 0 mm 4 mps 736 mmHg 89%
    07:00 -7°C° 0 mm 4 mps 736 mmHg 90%
    08:00 -5°C° 0.1 mm 4 mps 735 mmHg 88%
    09:00 -5°C° 0.1 mm 4 mps 735 mmHg 87%
    10:00 -4°C° 0.1 mm 4 mps 735 mmHg 85%
    11:00 -4°C° 0 mm 4 mps 735 mmHg 86%
    12:00 -4°C° 0 mm 4 mps 734 mmHg 87%
    13:00 -3°C° 0 mm 4 mps 733 mmHg 88%
    14:00 -4°C° 0.4 mm 4 mps 733 mmHg 91%
    15:00 -4°C° 0.4 mm 4 mps 733 mmHg 93%
    16:00 -4°C° 0.4 mm 4 mps 732 mmHg 95%
    17:00 -4°C° 0.5 mm 4 mps 732 mmHg 95%
    18:00 -4°C° 0.5 mm 4 mps 732 mmHg 95%
    19:00 -4°C° 0.5 mm 4 mps 732 mmHg 95%
    20:00 -4°C° 0.3 mm 4 mps 731 mmHg 95%
    21:00 -4°C° 0.3 mm 3 mps 731 mmHg 95%
    22:00 -4°C° 0.3 mm 3 mps 731 mmHg 95%
    23:00 -5°C° 0.1 mm 3 mps 731 mmHg 95%

    18 November, Monday

    Time Temperature Precipitation Wind Pressure Humidity
    00:00 -5°C° 0.1 mm 3 mps 730 mmHg 95%
    01:00 -5°C° 0.1 mm 3 mps 730 mmHg 95%
    02:00 -4°C° 0.2 mm 3 mps 730 mmHg 95%
    03:00 -4°C° 0.2 mm 3 mps 730 mmHg 96%
    04:00 -4°C° 0.2 mm 3 mps 730 mmHg 96%
    05:00 -4°C° 0.4 mm 3 mps 730 mmHg 96%
    06:00 -4°C° 0.4 mm 3 mps 729 mmHg 96%
    07:00 -4°C° 0.4 mm 3 mps 729 mmHg 96%
    08:00 -4°C° 0.2 mm 3 mps 729 mmHg 95%
    09:00 -2°C° 0.2 mm 3 mps 729 mmHg 94%
    10:00 -2°C° 0.2 mm 3 mps 729 mmHg 92%
    11:00 -1°C° 0.1 mm 3 mps 729 mmHg 94%
    12:00 -1°C° 0.1 mm 3 mps 729 mmHg 95%
    13:00 -1°C° 0.1 mm 3 mps 729 mmHg 96%
    14:00 -1°C° 0.1 mm 3 mps 729 mmHg 97%
    15:00 -1°C° 0.1 mm 3 mps 728 mmHg 97%
    16:00 -1°C° 0.1 mm 2 mps 728 mmHg 97%
    17:00 -1°C° 0.1 mm 2 mps 728 mmHg 97%
    18:00 -1°C° 0.1 mm 3 mps 728 mmHg 97%
    19:00 -1°C° 0.1 mm 3 mps 728 mmHg 97%
    20:00 -2°C° 0.1 mm 3 mps 728 mmHg 97%
    21:00 -2°C° 0.1 mm 3 mps 728 mmHg 96%
    22:00 -2°C° 0.1 mm 3 mps 728 mmHg 96%
    23:00 -2°C° 0.1 mm 2 mps 728 mmHg 97%
    Show more